NBL100 NZAA-YSNF

Flight info

Callsign NBL100
Flight time 1h 35m
Altitude 30000
Route NZAA/23L N0453F300 BELR2P ELNOS G591 MUGEN/N0461F320 G591 ABVOM DCT YSNF/11
Aircraft B738/M-SDE2E3FGHIRWXY/LB1

Departure

Time 2026-04-26 02:09
Airport Auckland International Airport (NZAA)

Arrival

Time 2026-04-26 03:45
Airport Norfolk Island International Airport (YSNF)
Time Latitude Longitude Altitude Speed Heading
2026-04-26 02:01 -37.00912 174.78181 25 ft 0 kts 108°
2026-04-26 02:03 -37.00926 174.78199 28 ft 8 kts 146°
2026-04-26 02:04 -37.00989 174.78253 27 ft 14 kts 146°
2026-04-26 02:04 -37.01073 174.78340 27 ft 17 kts 109°
2026-04-26 02:04 -37.01053 174.78478 25 ft 16 kts 70°
2026-04-26 02:04 -37.01011 174.78623 24 ft 20 kts 70°
2026-04-26 02:05 -37.00960 174.78802 25 ft 24 kts 70°
2026-04-26 02:05 -37.00908 174.78991 26 ft 23 kts 71°
2026-04-26 02:05 -37.00854 174.79192 24 ft 25 kts 71°
2026-04-26 02:05 -37.00796 174.79392 24 ft 24 kts 69°
2026-04-26 02:06 -37.00744 174.79571 24 ft 22 kts 71°
2026-04-26 02:06 -37.00700 174.79736 25 ft 18 kts 72°
2026-04-26 02:06 -37.00663 174.79881 26 ft 12 kts 73°
2026-04-26 02:06 -37.00644 174.79966 25 ft 10 kts 88°
2026-04-26 02:07 -37.00679 174.80046 27 ft 12 kts 127°
2026-04-26 02:07 -37.00685 174.80055 26 ft 0 kts 128°
2026-04-26 02:08 -37.00725 174.80117 25 ft 12 kts 131°
2026-04-26 02:08 -37.00800 174.80090 24 ft 18 kts 247°
2026-04-26 02:08 -37.00898 174.79742 27 ft 80 kts 251°
2026-04-26 02:08 -37.01163 174.78792 25 ft 149 kts 250°
2026-04-26 02:09 -37.01547 174.77404 483 ft 175 kts 251°
2026-04-26 02:09 -37.01916 174.75908 1464 ft 181 kts 250°
2026-04-26 02:09 -37.02324 174.74432 2438 ft 187 kts 250°
2026-04-26 02:09 -37.02787 174.72791 2705 ft 212 kts 250°
2026-04-26 02:10 -37.03306 174.70944 2979 ft 236 kts 250°
2026-04-26 02:10 -37.03857 174.68973 3731 ft 239 kts 250°
2026-04-26 02:10 -37.04405 174.67009 4599 ft 242 kts 250°
2026-04-26 02:10 -37.04961 174.65009 5386 ft 244 kts 249°
2026-04-26 02:11 -37.05528 174.62969 6112 ft 250 kts 250°
2026-04-26 02:11 -37.06103 174.60896 6851 ft 255 kts 250°
2026-04-26 02:11 -37.06688 174.58786 7575 ft 258 kts 250°
2026-04-26 02:11 -37.07155 174.56611 8327 ft 262 kts 266°
2026-04-26 02:12 -37.06816 174.54351 8977 ft 272 kts 294°
2026-04-26 02:12 -37.05650 174.52461 9731 ft 280 kts 317°
2026-04-26 02:12 -37.03977 174.51164 10350 ft 289 kts 332°
2026-04-26 02:12 -37.02088 174.50025 10560 ft 313 kts 333°
2026-04-26 02:13 -37.00046 174.48830 10741 ft 336 kts 333°
2026-04-26 02:13 -36.97863 174.47545 10900 ft 357 kts 333°
2026-04-26 02:13 -36.95565 174.46173 11152 ft 374 kts 333°
2026-04-26 02:13 -36.93197 174.44745 11705 ft 380 kts 333°
2026-04-26 02:14 -36.90845 174.43321 12350 ft 383 kts 333°
2026-04-26 02:14 -36.88423 174.41878 12989 ft 386 kts 333°
2026-04-26 02:14 -36.85977 174.40443 13598 ft 391 kts 334°
2026-04-26 02:14 -36.83499 174.38995 14165 ft 396 kts 334°
2026-04-26 02:15 -36.80995 174.37532 14751 ft 398 kts 334°
2026-04-26 02:15 -36.78475 174.36057 15347 ft 401 kts 334°
2026-04-26 02:15 -36.75943 174.34574 15927 ft 404 kts 334°
2026-04-26 02:15 -36.73394 174.33081 16503 ft 406 kts 334°
2026-04-26 02:16 -36.70820 174.31574 17035 ft 410 kts 333°
2026-04-26 02:16 -36.68284 174.29916 17577 ft 413 kts 329°
2026-04-26 02:16 -36.65816 174.28066 18127 ft 416 kts 327°
2026-04-26 02:16 -36.63361 174.26134 18610 ft 419 kts 326°
2026-04-26 02:17 -36.60887 174.24169 19065 ft 422 kts 326°
2026-04-26 02:17 -36.58433 174.22230 19530 ft 425 kts 327°
2026-04-26 02:17 -36.55888 174.20242 19998 ft 428 kts 327°
2026-04-26 02:17 -36.53384 174.18304 20433 ft 431 kts 327°
2026-04-26 02:18 -36.50826 174.16338 20878 ft 434 kts 327°
2026-04-26 02:18 -36.48243 174.14363 21301 ft 437 kts 327°
2026-04-26 02:18 -36.45642 174.12381 21721 ft 440 kts 327°
2026-04-26 02:18 -36.43021 174.10387 22130 ft 443 kts 327°
2026-04-26 02:19 -36.40381 174.08380 22535 ft 446 kts 327°
2026-04-26 02:19 -36.37728 174.06365 22927 ft 449 kts 327°
2026-04-26 02:19 -36.35056 174.04337 23317 ft 452 kts 327°
2026-04-26 02:19 -36.32360 174.02291 23634 ft 456 kts 327°
2026-04-26 02:20 -36.29643 174.00232 23955 ft 459 kts 327°
2026-04-26 02:20 -36.26922 173.98172 24298 ft 460 kts 327°
2026-04-26 02:20 -36.24182 173.96098 24659 ft 462 kts 327°
2026-04-26 02:20 -36.21441 173.94026 24977 ft 464 kts 327°
2026-04-26 02:21 -36.18676 173.91937 25274 ft 466 kts 327°
2026-04-26 02:21 -36.15899 173.89840 25590 ft 468 kts 327°
2026-04-26 02:21 -36.13120 173.87745 25911 ft 470 kts 327°
2026-04-26 02:21 -36.10322 173.85636 26216 ft 471 kts 327°
2026-04-26 02:22 -36.07511 173.83519 26482 ft 474 kts 328°
2026-04-26 02:22 -36.04681 173.81390 26712 ft 477 kts 328°
2026-04-26 02:22 -36.01837 173.79252 26992 ft 479 kts 328°
2026-04-26 02:22 -35.99031 173.77145 27280 ft 480 kts 328°
2026-04-26 02:23 -35.96172 173.74999 27615 ft 480 kts 328°
2026-04-26 02:23 -35.93289 173.72838 28036 ft 479 kts 328°
2026-04-26 02:23 -35.90483 173.70736 28476 ft 477 kts 328°
2026-04-26 02:23 -35.87650 173.68616 28889 ft 475 kts 328°
2026-04-26 02:24 -35.84820 173.66499 29250 ft 475 kts 328°
2026-04-26 02:24 -35.82002 173.64394 29645 ft 474 kts 328°
2026-04-26 02:24 -35.79182 173.62288 30064 ft 473 kts 328°
2026-04-26 02:24 -35.76360 173.60183 30196 ft 476 kts 328°
2026-04-26 02:25 -35.73517 173.58063 30196 ft 478 kts 328°
2026-04-26 02:25 -35.67855 173.53848 30193 ft 472 kts 328°
2026-04-26 02:26 -35.62248 173.49681 30201 ft 471 kts 328°
2026-04-26 02:26 -35.56625 173.45509 30190 ft 472 kts 329°
2026-04-26 02:27 -35.51001 173.41343 30194 ft 473 kts 329°
2026-04-26 02:27 -35.45370 173.37179 30189 ft 473 kts 329°
2026-04-26 02:28 -35.39725 173.33011 30186 ft 473 kts 329°
2026-04-26 02:28 -35.34083 173.28852 30185 ft 474 kts 329°
2026-04-26 02:29 -35.28439 173.24699 30186 ft 474 kts 329°
2026-04-26 02:29 -35.22823 173.20573 30190 ft 473 kts 329°
2026-04-26 02:30 -35.17167 173.16425 30182 ft 474 kts 329°
2026-04-26 02:30 -35.11523 173.12291 30192 ft 473 kts 329°
2026-04-26 02:31 -35.05881 173.08167 30186 ft 473 kts 329°
2026-04-26 02:31 -35.00236 173.04047 30181 ft 472 kts 329°
2026-04-26 02:32 -34.94601 172.99942 30191 ft 470 kts 330°
2026-04-26 02:32 -34.88989 172.95859 30187 ft 469 kts 330°
2026-04-26 02:33 -34.84320 172.92468 30180 ft 469 kts 330°
2026-04-26 02:33 -34.77777 172.87720 30191 ft 468 kts 330°
2026-04-26 02:34 -34.73142 172.84362 30187 ft 467 kts 330°
2026-04-26 02:34 -34.67560 172.80327 30188 ft 465 kts 330°
2026-04-26 02:35 -34.62006 172.76320 30191 ft 464 kts 329°
2026-04-26 02:35 -34.56494 172.72347 30185 ft 463 kts 330°
2026-04-26 02:36 -34.50958 172.68362 30191 ft 462 kts 329°
2026-04-26 02:36 -34.45448 172.64401 30183 ft 460 kts 329°
2026-04-26 02:37 -34.39949 172.60455 30181 ft 458 kts 329°
2026-04-26 02:37 -34.34472 172.56531 30184 ft 456 kts 330°
2026-04-26 02:38 -34.29021 172.52631 30182 ft 455 kts 330°
2026-04-26 02:38 -34.23647 172.48682 30187 ft 454 kts 324°
2026-04-26 02:39 -34.18722 172.44137 30184 ft 440 kts 320°
2026-04-26 02:39 -34.13966 172.39460 30190 ft 444 kts 320°
2026-04-26 02:40 -34.09085 172.34753 30197 ft 452 kts 321°
2026-04-26 02:40 -34.04128 172.30066 30188 ft 453 kts 321°
2026-04-26 02:41 -33.99142 172.25393 30188 ft 454 kts 321°
2026-04-26 02:41 -33.94190 172.20767 30178 ft 438 kts 320°
2026-04-26 02:41 -33.91828 172.18564 30181 ft 425 kts 319°
2026-04-26 02:42 -33.89495 172.16386 30193 ft 424 kts 319°
2026-04-26 02:42 -33.84804 172.12001 30198 ft 431 kts 319°
2026-04-26 02:43 -33.77696 172.05374 30191 ft 433 kts 319°
2026-04-26 02:43 -33.72938 172.00948 30182 ft 433 kts 320°
2026-04-26 02:44 -33.68172 171.96523 30188 ft 433 kts 319°
2026-04-26 02:44 -33.63511 171.92208 30185 ft 418 kts 318°
2026-04-26 02:45 -33.58883 171.87919 30194 ft 422 kts 318°
2026-04-26 02:45 -33.54213 171.83596 30193 ft 425 kts 319°
2026-04-26 02:46 -33.49521 171.79262 30184 ft 427 kts 319°
2026-04-26 02:46 -33.44841 171.74947 30183 ft 427 kts 319°
2026-04-26 02:47 -33.40110 171.70592 30169 ft 423 kts 318°
2026-04-26 02:47 -33.37844 171.68514 30164 ft 409 kts 317°
2026-04-26 02:47 -33.35602 171.66458 30178 ft 404 kts 317°
2026-04-26 02:48 -33.31131 171.62346 30201 ft 409 kts 318°
2026-04-26 02:48 -33.26577 171.58161 30184 ft 413 kts 318°
2026-04-26 02:49 -33.22022 171.53989 30183 ft 413 kts 318°
2026-04-26 02:49 -33.17463 171.49820 30184 ft 412 kts 318°
2026-04-26 02:50 -33.12916 171.45668 30185 ft 411 kts 318°
2026-04-26 02:50 -33.08366 171.41517 30184 ft 411 kts 318°
2026-04-26 02:51 -33.03821 171.37376 30185 ft 410 kts 318°
2026-04-26 02:51 -32.99286 171.33250 30185 ft 410 kts 318°
2026-04-26 02:52 -32.94784 171.29160 30180 ft 410 kts 318°
2026-04-26 02:52 -32.90242 171.25036 30183 ft 410 kts 318°
2026-04-26 02:53 -32.85698 171.20919 30181 ft 411 kts 319°
2026-04-26 02:53 -32.81146 171.16801 30169 ft 410 kts 318°
2026-04-26 02:54 -32.76628 171.12719 30168 ft 406 kts 318°
2026-04-26 02:54 -32.72145 171.08674 30166 ft 403 kts 318°
2026-04-26 02:55 -32.67694 171.04661 30170 ft 401 kts 318°
2026-04-26 02:55 -32.63257 171.00666 30175 ft 399 kts 318°
2026-04-26 02:56 -32.58860 170.96710 30170 ft 399 kts 318°
2026-04-26 02:56 -32.54411 170.92712 30163 ft 399 kts 319°
2026-04-26 02:57 -32.49990 170.88748 30169 ft 399 kts 319°
2026-04-26 02:57 -32.45584 170.84802 30173 ft 400 kts 319°
2026-04-26 02:58 -32.41145 170.80831 30172 ft 400 kts 319°
2026-04-26 02:58 -32.36690 170.76850 30169 ft 401 kts 319°
2026-04-26 02:59 -32.32233 170.72872 30170 ft 402 kts 319°
2026-04-26 02:59 -32.27761 170.68886 30168 ft 402 kts 319°
2026-04-26 03:00 -32.23297 170.64913 30165 ft 401 kts 320°
2026-04-26 03:00 -32.18838 170.60950 30169 ft 400 kts 320°
2026-04-26 03:01 -32.14401 170.57010 30164 ft 399 kts 320°
2026-04-26 03:01 -32.09977 170.53086 30169 ft 398 kts 320°
2026-04-26 03:02 -32.05524 170.49140 30172 ft 403 kts 320°
2026-04-26 03:02 -32.01038 170.45171 30163 ft 404 kts 320°
2026-04-26 03:03 -31.96564 170.41218 30163 ft 404 kts 320°
2026-04-26 03:03 -31.92049 170.37234 30149 ft 402 kts 320°
2026-04-26 03:04 -31.87607 170.33322 30150 ft 400 kts 320°
2026-04-26 03:04 -31.83170 170.29418 30157 ft 397 kts 320°
2026-04-26 03:05 -31.78748 170.25530 30153 ft 396 kts 320°
2026-04-26 03:05 -31.74350 170.21667 30155 ft 394 kts 320°
2026-04-26 03:06 -31.69960 170.17814 30155 ft 394 kts 320°
2026-04-26 03:06 -31.65571 170.13966 30148 ft 394 kts 321°
2026-04-26 03:07 -31.61167 170.10112 30157 ft 395 kts 321°
2026-04-26 03:07 -31.56756 170.06257 30154 ft 396 kts 321°
2026-04-26 03:08 -31.52330 170.02393 30154 ft 397 kts 321°
2026-04-26 03:08 -31.47883 169.98515 30154 ft 399 kts 321°
2026-04-26 03:09 -31.43430 169.94637 30152 ft 399 kts 321°
2026-04-26 03:09 -31.38961 169.90749 30139 ft 400 kts 322°
2026-04-26 03:10 -31.34508 169.86880 30147 ft 398 kts 322°
2026-04-26 03:10 -31.30064 169.83024 30144 ft 396 kts 322°
2026-04-26 03:11 -31.25634 169.79185 30148 ft 395 kts 322°
2026-04-26 03:11 -31.21195 169.75341 30153 ft 400 kts 322°
2026-04-26 03:12 -31.16705 169.71457 30146 ft 402 kts 322°
2026-04-26 03:12 -31.12207 169.67573 30145 ft 403 kts 322°
2026-04-26 03:13 -31.07705 169.63689 30144 ft 402 kts 322°
2026-04-26 03:13 -31.03241 169.59844 30142 ft 401 kts 322°
2026-04-26 03:14 -30.98751 169.55981 30142 ft 400 kts 322°
2026-04-26 03:14 -30.94280 169.52138 30141 ft 399 kts 322°
2026-04-26 03:15 -30.89817 169.48306 30144 ft 398 kts 322°
2026-04-26 03:15 -30.85363 169.44487 30139 ft 397 kts 322°
2026-04-26 03:16 -30.80907 169.40671 30150 ft 399 kts 322°
2026-04-26 03:16 -30.76401 169.36814 30149 ft 403 kts 323°
2026-04-26 03:17 -30.71878 169.32950 30135 ft 404 kts 323°
2026-04-26 03:17 -30.67379 169.29111 30138 ft 404 kts 323°
2026-04-26 03:18 -30.62848 169.25248 30133 ft 404 kts 323°
2026-04-26 03:18 -30.58320 169.21393 30136 ft 404 kts 323°
2026-04-26 03:19 -30.53793 169.17544 30142 ft 403 kts 323°
2026-04-26 03:19 -30.50028 169.14345 30113 ft 403 kts 323°
2026-04-26 03:20 -30.45513 169.10514 30129 ft 402 kts 323°
2026-04-26 03:20 -30.41003 169.06692 30141 ft 401 kts 323°
2026-04-26 03:21 -30.36493 169.02874 30138 ft 401 kts 323°
2026-04-26 03:21 -30.31986 168.99062 30134 ft 401 kts 323°
2026-04-26 03:22 -30.27478 168.95255 30130 ft 401 kts 323°
2026-04-26 03:22 -30.22963 168.91446 30135 ft 401 kts 323°
2026-04-26 03:23 -30.18461 168.87652 29889 ft 398 kts 323°
2026-04-26 03:23 -30.16246 168.85788 29498 ft 390 kts 323°
2026-04-26 03:23 -30.14069 168.83956 29045 ft 384 kts 323°
2026-04-26 03:24 -30.11921 168.82151 28510 ft 380 kts 323°
2026-04-26 03:24 -30.09797 168.80366 28031 ft 376 kts 322°
2026-04-26 03:24 -30.07715 168.78617 27546 ft 373 kts 322°
2026-04-26 03:24 -30.05619 168.76857 27060 ft 370 kts 322°
2026-04-26 03:25 -30.03542 168.75114 26587 ft 368 kts 322°
2026-04-26 03:25 -30.01474 168.73379 26106 ft 367 kts 322°
2026-04-26 03:25 -29.99410 168.71649 25611 ft 366 kts 321°
2026-04-26 03:25 -29.97343 168.69916 25128 ft 369 kts 321°
2026-04-26 03:26 -29.95236 168.68150 24641 ft 383 kts 321°
2026-04-26 03:26 -29.93046 168.66313 24116 ft 393 kts 321°
2026-04-26 03:26 -29.90832 168.64460 23561 ft 393 kts 321°
2026-04-26 03:26 -29.88623 168.62614 22981 ft 391 kts 321°
2026-04-26 03:27 -29.86431 168.60785 22462 ft 387 kts 321°
2026-04-26 03:27 -29.84252 168.58967 21955 ft 384 kts 321°
2026-04-26 03:27 -29.82095 168.57165 21464 ft 382 kts 321°
2026-04-26 03:27 -29.79947 168.55372 20944 ft 380 kts 321°
2026-04-26 03:28 -29.77833 168.53612 20446 ft 379 kts 321°
2026-04-26 03:28 -29.75697 168.51830 19929 ft 379 kts 322°
2026-04-26 03:28 -29.73559 168.50050 19431 ft 379 kts 321°
2026-04-26 03:28 -29.71421 168.48268 18923 ft 381 kts 322°
2026-04-26 03:29 -29.69267 168.46479 18409 ft 383 kts 322°
2026-04-26 03:29 -29.67103 168.44684 17834 ft 384 kts 323°
2026-04-26 03:29 -29.64936 168.42884 17311 ft 384 kts 323°
2026-04-26 03:29 -29.62770 168.41085 16803 ft 384 kts 323°
2026-04-26 03:30 -29.60610 168.39290 16317 ft 383 kts 323°
2026-04-26 03:30 -29.58449 168.37495 15796 ft 383 kts 323°
2026-04-26 03:30 -29.56287 168.35701 15330 ft 382 kts 323°
2026-04-26 03:30 -29.54129 168.33911 14823 ft 383 kts 324°
2026-04-26 03:31 -29.51966 168.32119 14283 ft 384 kts 324°
2026-04-26 03:31 -29.49791 168.30318 13705 ft 387 kts 324°
2026-04-26 03:31 -29.47608 168.28512 13141 ft 387 kts 324°
2026-04-26 03:31 -29.45426 168.26708 12597 ft 386 kts 324°
2026-04-26 03:32 -29.43251 168.24909 12078 ft 385 kts 324°
2026-04-26 03:32 -29.41084 168.23119 11594 ft 383 kts 324°
2026-04-26 03:32 -29.38927 168.21337 11117 ft 381 kts 324°
2026-04-26 03:32 -29.36818 168.19596 10829 ft 373 kts 324°
2026-04-26 03:33 -29.34750 168.17856 10609 ft 364 kts 320°
2026-04-26 03:33 -29.33117 168.15699 10356 ft 356 kts 304°
2026-04-26 03:33 -29.31458 168.13656 10129 ft 348 kts 327°
2026-04-26 03:33 -29.29261 168.12669 9992 ft 336 kts 347°
2026-04-26 03:34 -29.27108 168.11636 9471 ft 340 kts 329°
2026-04-26 03:34 -29.25246 168.09923 8985 ft 342 kts 309°
2026-04-26 03:34 -29.24098 168.07655 8990 ft 320 kts 285°
2026-04-26 03:34 -29.23691 168.05243 8912 ft 302 kts 274°
2026-04-26 03:35 -29.23666 168.02861 8537 ft 294 kts 265°
2026-04-26 03:35 -29.23470 168.00562 8254 ft 292 kts 285°
2026-04-26 03:35 -29.22687 167.98421 8005 ft 291 kts 298°
2026-04-26 03:35 -29.21652 167.96433 7723 ft 291 kts 302°
2026-04-26 03:36 -29.20553 167.94470 7434 ft 293 kts 302°
2026-04-26 03:36 -29.19456 167.92499 7137 ft 294 kts 302°
2026-04-26 03:36 -29.18359 167.90525 6875 ft 294 kts 302°
2026-04-26 03:36 -29.17265 167.88549 6595 ft 294 kts 302°
2026-04-26 03:37 -29.16176 167.86573 6315 ft 293 kts 302°
2026-04-26 03:37 -29.15109 167.84632 6064 ft 291 kts 302°
2026-04-26 03:37 -29.14047 167.82692 5943 ft 284 kts 302°
2026-04-26 03:37 -29.13009 167.80789 5819 ft 282 kts 302°
2026-04-26 03:38 -29.11975 167.78880 5724 ft 282 kts 302°
2026-04-26 03:38 -29.10938 167.76964 5610 ft 286 kts 302°
2026-04-26 03:38 -29.09875 167.75005 5354 ft 295 kts 302°
2026-04-26 03:38 -29.08624 167.73153 4998 ft 295 kts 324°
2026-04-26 03:39 -29.06819 167.72277 4885 ft 275 kts 358°
2026-04-26 03:39 -29.04985 167.72609 4530 ft 265 kts 32°
2026-04-26 03:39 -29.03461 167.73705 4182 ft 260 kts 39°
2026-04-26 03:39 -29.01941 167.74850 3432 ft 262 kts 38°
2026-04-26 03:40 -29.00451 167.75965 3128 ft 247 kts 39°
2026-04-26 03:40 -28.99101 167.76969 3026 ft 213 kts 41°
2026-04-26 03:40 -28.98131 167.77976 2913 ft 167 kts 67°
2026-04-26 03:40 -28.97792 167.79097 2894 ft 137 kts 85°
2026-04-26 03:41 -28.97744 167.80182 2743 ft 136 kts 98°
2026-04-26 03:41 -28.97864 167.81230 2586 ft 133 kts 101°
2026-04-26 03:41 -28.98010 167.82254 2440 ft 128 kts 111°
2026-04-26 03:41 -28.98374 167.83184 2286 ft 130 kts 117°
2026-04-26 03:42 -28.98794 167.84104 2126 ft 130 kts 120°
2026-04-26 03:42 -28.99247 167.84987 1952 ft 128 kts 122°
2026-04-26 03:42 -28.99710 167.85851 1786 ft 129 kts 123°
2026-04-26 03:42 -29.00186 167.86723 1631 ft 132 kts 123°
2026-04-26 03:43 -29.00680 167.87621 1450 ft 135 kts 123°
2026-04-26 03:43 -29.01187 167.88538 1270 ft 138 kts 122°
2026-04-26 03:43 -29.01707 167.89478 1089 ft 141 kts 122°
2026-04-26 03:43 -29.02233 167.90428 910 ft 143 kts 121°
2026-04-26 03:44 -29.02772 167.91411 700 ft 149 kts 122°
2026-04-26 03:44 -29.03352 167.92403 408 ft 143 kts 128°
2026-04-26 03:44 -29.03832 167.93319 379 ft 129 kts 117°
2026-04-26 03:44 -29.04260 167.94095 330 ft 97 kts 123°
2026-04-26 03:45 -29.04447 167.94414 331 ft 17 kts 135°
2026-04-26 03:45 -29.04461 167.94444 330 ft 1 kts 30°
2026-04-26 03:45 -29.04444 167.94432 326 ft 8 kts 307°
2026-04-26 03:45 -29.04408 167.94362 327 ft 6 kts 300°
2026-04-26 03:46 -29.04383 167.94313 331 ft 9 kts 300°
2026-04-26 03:46 -29.04346 167.94242 330 ft 12 kts 302°
2026-04-26 03:46 -29.04294 167.94148 330 ft 16 kts 302°
2026-04-26 03:47 -29.04150 167.94011 325 ft 16 kts 39°
2026-04-26 03:47 -29.04078 167.94102 327 ft 15 kts 50°
2026-04-26 03:47 -29.04013 167.94193 330 ft 15 kts 51°
2026-04-26 03:47 -29.03942 167.94289 331 ft 17 kts 40°
2026-04-26 03:48 -29.03831 167.94327 334 ft 17 kts
2026-04-26 03:48 -29.03722 167.94350 338 ft 16 kts 12°
2026-04-26 03:48 -29.03632 167.94360 336 ft 10 kts 339°
2026-04-26 03:48 -29.03592 167.94336 336 ft 0 kts 331°